Погода в Цетине

Черногория     42°23′23″N   18°55′28″E
темп.,
°C
ветер,
м/с
пор.,
м/с
влажн.,
%
обл.,
%
осадки,
мм/ч
давл.,
гПа
погр.,
м
21 апреля, ср
ср2123:00+3сз118714 0.1 101911
02:00+3ссз118981 0.1 102011
05:00+2ссз229119 0.0 102016
08:00+6ссв11835 0.0 1020239
11:00+9ююв227097 0.2 1020988
14:00+10ююз117179 1.3 1020789
17:00+10ю217149 0.9 1019885
20:00+7юв128552 1.1 102136
22 апреля, чт
чт2223:00+4ссз11905 0.0 102310
02:00+4ссз229185 0.0 102313
05:00+3ссз229099 0.0 102217
08:00+7с117980 0.0 1022178
11:00+11ююв346398 0.0 10221000
14:00+12ююв4560100 0.0 10211396
17:00+9ююв2377100 0.1 1020383
20:00+7вюв2398100 3.6 1021189
23 апреля, пт
пт2323:00+7св1297100 3.3 1020110
02:00+7всв1299100 6.0 1019140
05:00+7с2397100 3.8 1019184
08:00+6ссв2295100 7.5 1021109
11:00+7ссв2293100 1.4 1022143
14:00+8св2288100 1.7 1022229
17:00+9ссв228499 0.0 1021344
20:00+8с2288100 0.0 102127
24 апреля, сб
сб2423:00+5ссз348695 0.0 102248
02:00+5ссз448192 0.0 102155
05:00+4с4484100 0.0 102154
08:00+7с3374100 0.0 1020178
11:00+11св2349100 0.0 1019933
14:00+14всв234694 0.0 10181464
17:00+14в23500 0.0 10171415
20:00+8сз11770 0.0 101911
25 апреля, вс
вс2523:00+6ссз33750 0.0 102044
02:00+4ссз44760 0.0 102159
05:00+3ссз44770 0.0 102160
08:00+8с33640 0.0 1021160
11:00+14всв22456 0.0 1020907
14:00+16в22390 0.0 10191450
17:00+16ююв225094 0.0 1018808
20:00+10св0072100 0.0 102010